User: anonymous   Login
Location: Caltech
(34.1382°N, 118.1253°W)
Time: 05:14:42
(UTC-07:00)
Language:

Cosmos 1943 Rocket - Orbit

View from above orbital plane
View from above orbital plane
View from above satellite
View from above satellite

Ground track
Ground track

The orbit data is extracted from the following two-line orbital elements,

1 19120U 88039B   14302.80522478 -.00000107  00000-0 -27944-4 0  1944
2 19120 071.0155 196.1215 0023301 226.7237 196.4840 14.19051817370006
Epoch (UTC): 29 October 2014 19:19:31
Eccentricity: 0.0023301
inclination: 71.0155°
perigee height: 812 km
apogee height: 845 km
right ascension of ascending node: 196.1215°
argument of perigee: 226.7237°
revolutions per day: 14.19051817
mean anomaly at epoch: 196.4840°
orbit number at epoch: 37000

The dashed part of the orbit path shows where the satellite is in the earth's shadow,  

DLR